{"data":{"norad_id":37792,"epoch":"2026-09-20T01:24:09.190080Z","epoch_age_seconds":52437,"freshness":"FRESH","line1":"1 37792U 11044E   26263.05843970  .00000676  00000+0  92202-4 0  9990","line2":"2 37792  98.2483 198.8056 0053265  57.9299 302.7069 14.81215502812831","mean_motion":14.81215502,"eccentricity":0.0053265,"inclination_deg":98.2483,"raan_deg":198.8056,"arg_perigee_deg":57.9299,"mean_anomaly_deg":302.7069,"bstar":9.2202e-5,"rev_number":81283,"period_min":97.217454047412,"perigee_km":588.18519035188,"apogee_km":662.79482888534,"semimajor_km":7003.6270096186,"source":"CELESTRAK","updated_at":"2026-09-20T09:00:47.443309Z"}}